Location: Arroyo Grande
(40.2671°N, 4.2512°W)
Time: 05:08:38
(UTC+00:00)

DMSP 5D-2 F-14 - Pass Details

Date: 03 February 2023
Orbit: 832 x 844 km, 98.9° (Epoch: 25 March)

Event Time Altitude Azimuth Distance (km) Brightness Sun altitude
Exits shadow 19:41:59 25° 157° (SSE) 1,634 6.0 -24.0°
Maximum altitude 19:45:16 78° 74° (ENE) 858 4.5 -24.6°
Drops below altitude 10° 19:50:42 10° 349° (N) 2,457 7.2 -25.6°
Sets 19:53:04 0° 348° (NNW) 3,397 8.0 -26.1°
